EWG7051 EDDN-EDDH

Flight info

Callsign EWG7051
Flight time 0h 59m
Altitude 30000
Route ERETO1C ERETO DCT LONLI M726 LASTO M852 LARET/N0441F340 M852 HLZ Z990 DIRBO/N0395F230 T902 RARUP RARUP3D
Aircraft A319/M-SDE3FGHIRWY/LB1

Departure

Time 2026-05-01 08:50
Airport Nuremberg Airport (EDDN)

Arrival

Time 2026-05-01 09:49
Airport Hamburg Helmut Schmidt Airport (EDDH)
Time Latitude Longitude Altitude Speed Heading
2026-05-01 08:19 49.49521 11.07725 1029 ft 0 kts 188°
2026-05-01 08:42 49.49522 11.07725 1029 ft 1 kts 188°
2026-05-01 08:43 49.49545 11.07733 1029 ft 4 kts 202°
2026-05-01 08:43 49.49568 11.07754 1029 ft 4 kts 226°
2026-05-01 08:43 49.49582 11.07787 1029 ft 4 kts 264°
2026-05-01 08:43 49.49583 11.07802 1029 ft 0 kts 278°
2026-05-01 08:45 49.49583 11.07801 1029 ft 0 kts 278°
2026-05-01 08:45 49.49598 11.07774 1029 ft 6 kts 327°
2026-05-01 08:46 49.49657 11.07767 1028 ft 12 kts 345°
2026-05-01 08:46 49.49695 11.07633 1029 ft 17 kts 278°
2026-05-01 08:46 49.49714 11.07433 1028 ft 21 kts 278°
2026-05-01 08:46 49.49735 11.07197 1025 ft 24 kts 278°
2026-05-01 08:47 49.49763 11.06919 1022 ft 28 kts 278°
2026-05-01 08:47 49.49794 11.06603 1021 ft 31 kts 278°
2026-05-01 08:47 49.49829 11.06257 1023 ft 34 kts 278°
2026-05-01 08:47 49.49898 11.05976 1029 ft 25 kts 330°
2026-05-01 08:48 49.49950 11.05942 1030 ft 0 kts 339°
2026-05-01 08:48 49.49952 11.05941 1030 ft 3 kts 339°
2026-05-01 08:48 49.50014 11.05945 1030 ft 16 kts 28°
2026-05-01 08:48 49.50041 11.06063 1030 ft 0 kts 94°
2026-05-01 08:49 49.50041 11.06064 1030 ft 1 kts 94°
2026-05-01 08:49 49.50022 11.06299 1025 ft 53 kts 98°
2026-05-01 08:49 49.49939 11.07176 1025 ft 111 kts 98°
2026-05-01 08:49 49.49787 11.08627 1051 ft 161 kts 99°
2026-05-01 08:50 49.49613 11.10256 1749 ft 149 kts 99°
2026-05-01 08:50 49.49452 11.11867 2286 ft 160 kts 99°
2026-05-01 08:50 49.49276 11.13680 2647 ft 182 kts 98°
2026-05-01 08:50 49.49085 11.15734 3010 ft 206 kts 95°
2026-05-01 08:51 49.49228 11.18046 3374 ft 232 kts 73°
2026-05-01 08:51 49.50000 11.20359 3882 ft 257 kts 51°
2026-05-01 08:51 49.51359 11.22233 4724 ft 267 kts 37°
2026-05-01 08:51 49.52836 11.24013 5731 ft 272 kts 38°
2026-05-01 08:52 49.54445 11.25504 6693 ft 277 kts 19°
2026-05-01 08:52 49.56354 11.25898 7668 ft 280 kts 355°
2026-05-01 08:52 49.58303 11.25595 8672 ft 283 kts 353°
2026-05-01 08:52 49.60275 11.25261 9612 ft 287 kts 353°
2026-05-01 08:53 49.61605 11.25035 10208 ft 291 kts 353°
2026-05-01 08:53 49.64435 11.24556 10727 ft 322 kts 353°
2026-05-01 08:53 49.66712 11.24173 11257 ft 335 kts 353°
2026-05-01 08:53 49.68260 11.23914 11751 ft 339 kts 353°
2026-05-01 08:54 49.71406 11.23394 12797 ft 345 kts 353°
2026-05-01 08:54 49.73002 11.23133 13304 ft 347 kts 353°
2026-05-01 08:54 49.75418 11.22737 14041 ft 351 kts 353°
2026-05-01 08:54 49.77886 11.22332 14762 ft 355 kts 353°
2026-05-01 08:55 49.80350 11.21926 15463 ft 359 kts 353°
2026-05-01 08:55 49.82831 11.21514 16154 ft 363 kts 353°
2026-05-01 08:55 49.85364 11.21093 16831 ft 366 kts 353°
2026-05-01 08:55 49.87906 11.20670 17485 ft 370 kts 353°
2026-05-01 08:56 49.90476 11.20242 18128 ft 374 kts 353°
2026-05-01 08:56 49.93066 11.19813 18764 ft 377 kts 353°
2026-05-01 08:56 49.95694 11.19380 19385 ft 381 kts 353°
2026-05-01 08:56 49.98356 11.18938 20009 ft 385 kts 353°
2026-05-01 08:57 50.01031 11.18491 20610 ft 388 kts 353°
2026-05-01 08:57 50.03708 11.18044 21188 ft 392 kts 353°
2026-05-01 08:57 50.06433 11.17592 21754 ft 395 kts 353°
2026-05-01 08:57 50.09181 11.17137 22302 ft 399 kts 353°
2026-05-01 08:58 50.11949 11.16675 22845 ft 401 kts 353°
2026-05-01 08:58 50.14736 11.16203 23366 ft 404 kts 353°
2026-05-01 08:58 50.17549 11.15720 23873 ft 407 kts 353°
2026-05-01 08:58 50.20379 11.15236 24356 ft 411 kts 353°
2026-05-01 08:59 50.23230 11.14751 24822 ft 414 kts 353°
2026-05-01 08:59 50.26106 11.14268 25272 ft 417 kts 353°
2026-05-01 08:59 50.28987 11.13788 25716 ft 420 kts 353°
2026-05-01 08:59 50.31898 11.13302 26153 ft 422 kts 353°
2026-05-01 09:00 50.34839 11.12806 26575 ft 425 kts 353°
2026-05-01 09:00 50.37787 11.12304 26985 ft 428 kts 353°
2026-05-01 09:00 50.40760 11.11791 27386 ft 431 kts 353°
2026-05-01 09:00 50.43738 11.11280 27763 ft 434 kts 353°
2026-05-01 09:01 50.46745 11.10767 28125 ft 438 kts 353°
2026-05-01 09:01 50.49786 11.10249 28497 ft 440 kts 353°
2026-05-01 09:01 50.52844 11.09728 28877 ft 443 kts 353°
2026-05-01 09:01 50.55919 11.09200 29251 ft 445 kts 353°
2026-05-01 09:02 50.59006 11.08670 29621 ft 447 kts 353°
2026-05-01 09:02 50.62105 11.08139 29928 ft 449 kts 353°
2026-05-01 09:02 50.68208 11.07100 30018 ft 430 kts 353°
2026-05-01 09:03 50.74120 11.06088 30012 ft 425 kts 353°
2026-05-01 09:03 50.79992 11.05075 30004 ft 424 kts 353°
2026-05-01 09:04 50.85864 11.04053 30004 ft 424 kts 353°
2026-05-01 09:04 50.91723 11.03030 30004 ft 423 kts 353°
2026-05-01 09:05 50.97580 11.02017 30005 ft 423 kts 353°
2026-05-01 09:05 51.03434 11.01006 30008 ft 423 kts 353°
2026-05-01 09:06 51.09286 10.99975 30009 ft 423 kts 353°
2026-05-01 09:06 51.15129 10.98942 30009 ft 423 kts 353°
2026-05-01 09:07 51.20975 10.97914 30021 ft 422 kts 353°
2026-05-01 09:07 51.26818 10.96892 30012 ft 422 kts 353°
2026-05-01 09:08 51.32670 10.95865 30001 ft 423 kts 353°
2026-05-01 09:08 51.38515 10.94832 30001 ft 423 kts 353°
2026-05-01 09:09 51.44332 10.93798 30003 ft 423 kts 353°
2026-05-01 09:09 51.50193 10.92746 30016 ft 423 kts 353°
2026-05-01 09:10 51.56039 10.91699 30010 ft 423 kts 353°
2026-05-01 09:10 51.61894 10.90654 30000 ft 423 kts 353°
2026-05-01 09:11 51.67754 10.89607 29999 ft 424 kts 353°
2026-05-01 09:11 51.73621 10.88582 30010 ft 424 kts 353°
2026-05-01 09:12 51.79492 10.87590 30014 ft 424 kts 354°
2026-05-01 09:12 51.85361 10.86626 30010 ft 424 kts 354°
2026-05-01 09:13 51.91240 10.85782 30015 ft 423 kts 355°
2026-05-01 09:13 51.97072 10.85006 30017 ft 423 kts 355°
2026-05-01 09:14 52.02937 10.84200 30017 ft 423 kts 355°
2026-05-01 09:14 52.08795 10.83372 30023 ft 422 kts 354°
2026-05-01 09:15 52.14652 10.82529 30014 ft 422 kts 354°
2026-05-01 09:15 52.20506 10.81707 30010 ft 422 kts 355°
2026-05-01 09:16 52.26363 10.80904 30008 ft 422 kts 355°
2026-05-01 09:17 52.35143 10.79700 30017 ft 422 kts 355°
2026-05-01 09:17 52.43938 10.80308 30011 ft 422 kts
2026-05-01 09:18 52.52725 10.81225 30010 ft 422 kts
2026-05-01 09:19 52.61508 10.82135 30008 ft 422 kts
2026-05-01 09:20 52.70478 10.83083 30012 ft 444 kts
2026-05-01 09:20 52.76657 10.83733 29866 ft 443 kts
2026-05-01 09:21 52.82854 10.84303 28332 ft 445 kts 359°
2026-05-01 09:21 52.85914 10.83870 27728 ft 440 kts 353°
2026-05-01 09:21 52.91898 10.82657 26493 ft 432 kts 353°
2026-05-01 09:22 52.97808 10.81454 25267 ft 424 kts 353°
2026-05-01 09:22 53.03606 10.80274 24029 ft 416 kts 353°
2026-05-01 09:23 53.06466 10.79692 23423 ft 412 kts 353°
2026-05-01 09:23 53.12107 10.78533 22236 ft 405 kts 353°
2026-05-01 09:24 53.17650 10.77388 21107 ft 398 kts 352°
2026-05-01 09:24 53.20386 10.76818 20578 ft 395 kts 352°
2026-05-01 09:24 53.25792 10.75699 19474 ft 388 kts 353°
2026-05-01 09:25 53.31106 10.74609 18352 ft 381 kts 353°
2026-05-01 09:25 53.36324 10.73534 17192 ft 374 kts 352°
2026-05-01 09:26 53.38900 10.72996 16600 ft 371 kts 352°
2026-05-01 09:26 53.43983 10.71933 15420 ft 365 kts 352°
2026-05-01 09:26 53.46420 10.71424 14841 ft 362 kts 352°
2026-05-01 09:27 53.51373 10.70382 13662 ft 355 kts 352°
2026-05-01 09:27 53.53819 10.69869 13067 ft 352 kts 352°
2026-05-01 09:27 53.56243 10.69364 12482 ft 349 kts 352°
2026-05-01 09:28 53.58568 10.68299 11907 ft 345 kts 333°
2026-05-01 09:28 53.60476 10.65925 11327 ft 341 kts 312°
2026-05-01 09:28 53.61711 10.62551 10823 ft 336 kts 289°
2026-05-01 09:28 53.62121 10.58786 10714 ft 322 kts 270°
2026-05-01 09:29 53.61141 10.51597 10383 ft 316 kts 252°
2026-05-01 09:29 53.60485 10.48144 10239 ft 303 kts 252°
2026-05-01 09:30 53.59223 10.41598 9901 ft 287 kts 252°
2026-05-01 09:30 53.58609 10.38401 9813 ft 287 kts 252°
2026-05-01 09:30 53.57384 10.32032 9523 ft 285 kts 252°
2026-05-01 09:31 53.56767 10.28857 9379 ft 285 kts 252°
2026-05-01 09:31 53.56151 10.25694 9229 ft 284 kts 252°
2026-05-01 09:31 53.54930 10.19391 8934 ft 283 kts 252°
2026-05-01 09:32 53.54323 10.16241 8791 ft 282 kts 252°
2026-05-01 09:32 53.53121 10.10033 8505 ft 281 kts 252°
2026-05-01 09:32 53.52501 10.06855 8352 ft 280 kts 252°
2026-05-01 09:33 53.51901 10.03785 8152 ft 278 kts 252°
2026-05-01 09:33 53.51301 10.00715 7936 ft 267 kts 252°
2026-05-01 09:33 53.50150 9.95116 7629 ft 246 kts 244°
2026-05-01 09:34 53.49220 9.92749 7300 ft 243 kts 230°
2026-05-01 09:34 53.48140 9.90577 6951 ft 241 kts 230°
2026-05-01 09:34 53.45995 9.86273 6238 ft 239 kts 230°
2026-05-01 09:35 53.44932 9.84141 5874 ft 237 kts 230°
2026-05-01 09:35 53.42814 9.79910 5069 ft 236 kts 230°
2026-05-01 09:35 53.41776 9.77793 4725 ft 234 kts 234°
2026-05-01 09:36 53.41148 9.75322 4313 ft 232 kts 261°
2026-05-01 09:36 53.41257 9.72652 3896 ft 229 kts 286°
2026-05-01 09:36 53.41742 9.70100 3504 ft 229 kts 288°
2026-05-01 09:36 53.42413 9.67713 3110 ft 228 kts 308°
2026-05-01 09:37 53.43555 9.65851 2603 ft 229 kts 326°
2026-05-01 09:37 53.46674 9.64950 2568 ft 251 kts
2026-05-01 09:37 53.48459 9.65129 2799 ft 262 kts
2026-05-01 09:38 53.52132 9.65520 4295 ft 267 kts
2026-05-01 09:38 53.53984 9.65721 4494 ft 267 kts
2026-05-01 09:38 53.55827 9.65613 4530 ft 260 kts 347°
2026-05-01 09:39 53.58573 9.62311 4274 ft 240 kts 300°
2026-05-01 09:39 53.59011 9.60624 4185 ft 234 kts 285°
2026-05-01 09:39 53.59093 9.57054 3844 ft 230 kts 257°
2026-05-01 09:40 53.58486 9.54610 3575 ft 229 kts 236°
2026-05-01 09:40 53.55961 9.51570 2986 ft 228 kts 194°
2026-05-01 09:40 53.54392 9.51382 2659 ft 228 kts 173°
2026-05-01 09:41 53.52910 9.52159 2543 ft 218 kts 153°
2026-05-01 09:41 53.50821 9.53933 2572 ft 197 kts 153°
2026-05-01 09:41 53.49582 9.54975 2559 ft 206 kts 153°
2026-05-01 09:42 53.48295 9.56062 2560 ft 208 kts 153°
2026-05-01 09:42 53.47150 9.57543 2557 ft 209 kts 132°
2026-05-01 09:42 53.46075 9.61996 2559 ft 210 kts 92°
2026-05-01 09:43 53.46945 9.66487 2553 ft 209 kts 52°
2026-05-01 09:43 53.47879 9.68355 2552 ft 209 kts 49°
2026-05-01 09:43 53.48814 9.70223 2556 ft 209 kts 49°
2026-05-01 09:44 53.50678 9.73953 2555 ft 209 kts 49°
2026-05-01 09:44 53.51615 9.75828 2562 ft 210 kts 49°
2026-05-01 09:44 53.52548 9.77700 2555 ft 209 kts 49°
2026-05-01 09:45 53.53440 9.79489 2525 ft 188 kts 50°
2026-05-01 09:45 53.54939 9.82501 2181 ft 149 kts 49°
2026-05-01 09:45 53.55572 9.83774 1994 ft 138 kts 49°
2026-05-01 09:46 53.56178 9.84991 1823 ft 134 kts 49°
2026-05-01 09:46 53.56769 9.86181 1646 ft 132 kts 49°
2026-05-01 09:46 53.57357 9.87363 1483 ft 131 kts 49°
2026-05-01 09:46 53.57941 9.88540 1307 ft 131 kts 49°
2026-05-01 09:47 53.58523 9.89712 1133 ft 130 kts 49°
2026-05-01 09:47 53.59106 9.90886 958 ft 130 kts 49°
2026-05-01 09:47 53.59686 9.92056 784 ft 130 kts 49°
2026-05-01 09:47 53.60263 9.93219 619 ft 129 kts 50°
2026-05-01 09:48 53.60838 9.94379 434 ft 129 kts 50°
2026-05-01 09:48 53.61412 9.95537 269 ft 129 kts 50°
2026-05-01 09:48 53.61982 9.96689 99 ft 128 kts 50°
2026-05-01 09:48 53.62517 9.97771 41 ft 106 kts 50°
2026-05-01 09:49 53.62878 9.98503 44 ft 56 kts 50°
2026-05-01 09:49 53.63157 9.99067 47 ft 75 kts 50°
2026-05-01 09:49 53.63453 9.99657 48 ft 48 kts 50°
2026-05-01 09:49 53.63575 9.99920 51 ft 22 kts 52°
2026-05-01 09:50 53.63586 10.00032 50 ft 2 kts 130°
2026-05-01 09:50 53.63566 10.00068 51 ft 12 kts 135°
2026-05-01 09:50 53.63492 10.00177 49 ft 13 kts 141°
2026-05-01 09:50 53.63426 10.00253 49 ft 11 kts 114°
2026-05-01 09:51 53.63418 10.00327 49 ft 7 kts 101°